Regional Weather Roundup
Issued by NWS Huntsville, AL

Home | Current Version | Previous Version | Text Only | Print | Product List | Glossary On
Versions: 1 2 3 4 5 6 7 8 9 10 11 12 13 14 15 16 17 18 19 20 21 22 23 24 25 26 27 28 29 30 31 32 33 34 35 36 37 38 39 40 41 42 43 44 45 46 47 48 49 50
000
ASUS44 KHUN 270810
RWRHUN

WEATHER ROUNDUP FOR THE TENNESSEE VALLEY
NATIONAL WEATHER SERVICE HUNTSVILLE AL
300 AM CDT MON MAR 27 2017

ALZ001>004-270900-
NORTHWEST ALABAMA

CITY           SKY/WX    TMP DP  RH WIND       PRES   REMARKS
COURTLAND HCN    N/A     61 N/A N/A S6          N/A
RUSSELLVILLE     N/A     64 N/A N/A MISG        N/A
SHOALS AIRPORT CLOUDY    62  56  80 S5        29.97F
SHOALS TVA RES   N/A     57 N/A N/A MISG        N/A
$$

ALZ005>007-016-270900-
NORTH CENTRAL ALABAMA

CITY           SKY/WX    TMP DP  RH WIND       PRES   REMARKS
CULLMAN AG STN   N/A     54 N/A N/A CALM        N/A
DECATUR AP     MOCLDY    59  56  89 SE7       29.98F
HUNTSVILLE AP  PTCLDY    58  56  93 SE6       29.98F
MERIDIANVILLE  PTCLDY    54  50  87 CALM      29.99F
REDSTONE ARSN  PTCLDY    60  58  90 S6        29.98S
VINEMONT AP    FAIR      61  58  90 S7        30.02F
$$

ALZ008>010-270900-
NORTHEAST ALABAMA

CITY           SKY/WX    TMP DP  RH WIND       PRES   REMARKS
ALBERTVILLE    PTCLDY    61  61 100 S6        30.01S
FORT PAYNE     PTCLDY    50  46  87 CALM      30.01F
SCOTTSBORO AP  PTCLDY    54  54 100 CALM      30.02F
SCOTTSBORO HCN   N/A     52 N/A N/A MISG        N/A
VALLEY HEAD      N/A     52 N/A N/A MISG        N/A
$$

TNZ076-096-097-270900-
SOUTHEASTERN MIDDLE TENNESSEE

CITY           SKY/WX    TMP DP  RH WIND       PRES   REMARKS
TULLAHOMA      CLEAR     50  48  93 CALM      30.00F
WINCHESTER     PTCLDY    55  54  94 SE6       30.00F
$$

...SURROUNDING SITES...

CITY           SKY/WX    TMP DP  RH WIND       PRES   REMARKS
ATLANTA        PTCLDY    62  55  77 CALM      30.05S
ANNISTON       CLEAR     58  58 100 CALM      30.03S
BIRMINGHAM     MOCLDY    66  63  90 S7        30.03F
CHATTANOOGA    CLEAR     56  52  86 CALM      30.02S
DALTON         PTCLDY    52  52 100 CALM      30.03S
GADSDEN        CLEAR     55  54  96 CALM      30.02F
GOLDEN TRNGL   CLOUDY    63  55  77 S6        29.93R
HALEYVILLE     FAIR      61  58  90 S8        30.01S
JACKSON TN     CLOUDY    55  52  89 CALM      29.91F
MEMPHIS        CLOUDY    65  53  65 S8        29.87F
NASHVILLE      MOCLDY    61  54  77 SE5       29.96F
OXFORD MS      FAIR      63  55  77 S8        29.94F
ROME           PTCLDY    56  52  86 CALM      30.02S
SAVANNAH       MOCLDY    59  55  88 S5        29.93F
TUPELO         CLOUDY    61  56  83 S6        29.94F
TUSCALOOSA     MOCLDY    62  60  93 CALM      30.00S
$$

...GULF COAST WEATHER...

CITY           SKY/WX    TMP DP  RH WIND       PRES   REMARKS
GULFPORT       CLOUDY    73  70  90 S9        29.98S
PASCAGOULA     MOCLDY    71  67  87 S7        29.98F
MOBILE         CLOUDY    70  66  87 S7        30.00F
GULF SHORES    CLOUDY    68  68 100 SE5       30.00F
PENSACOLA      MOCLDY    69  66  90 S5        30.00F
DESTIN         CLOUDY    69  69 100 SE3       30.02F
PANAMA CITY    FOG       63  63 100 SE3       30.03F VSB 5/8
APPALACHICOLA  FOG       58  58 100 CALM      30.03S VSB 1/4
$$




USA.gov is the U.S. government's official web portal to all federal, state and local government web resources and services.